When you browse on this site, cookies collect data to enhance your experience and personalize the content and advertising you see.
Visit our Privacy Policy to learn more. By continuing to use the site, you agree to this use of cookies and data.
  • In Hungary
  • List of Countries
  • For 7 days
  • Water Temperature
  • Satellite Maps
  • Weather Map
  • News
  • Weather Widgets
  • user-avatar
    Login

    Hourly Weather Karlshamn

    Today, 24 June, Monday

    Time Temperature Precipitation Wind Pressure Humidity
    00:00 +14°C° 0 mm 2 mps 768 mmHg 71%
    01:00 +14°C° 0 mm 2 mps 769 mmHg 71%
    02:00 +13°C° 0 mm 2 mps 769 mmHg 71%
    03:00 +12°C° 0 mm 3 mps 769 mmHg 71%
    04:00 +12°C° 0 mm 3 mps 769 mmHg 71%
    05:00 +14°C° 0 mm 3 mps 769 mmHg 67%
    06:00 +16°C° 0 mm 3 mps 769 mmHg 63%
    07:00 +18°C° 0 mm 3 mps 769 mmHg 59%
    08:00 +19°C° 0 mm 3 mps 769 mmHg 56%
    09:00 +20°C° 0 mm 3 mps 769 mmHg 54%
    10:00 +21°C° 0 mm 3 mps 769 mmHg 51%
    11:00 +22°C° 0 mm 3 mps 769 mmHg 47%
    12:00 +22°C° 0 mm 3 mps 769 mmHg 44%
    13:00 +22°C° 0 mm 3 mps 770 mmHg 40%
    14:00 +22°C° 0 mm 3 mps 769 mmHg 41%
    15:00 +22°C° 0 mm 3 mps 769 mmHg 41%
    16:00 +21°C° 0 mm 3 mps 769 mmHg 41%
    17:00 +20°C° 0 mm 3 mps 769 mmHg 46%
    18:00 +19°C° 0 mm 3 mps 769 mmHg 51%
    19:00 +19°C° 0 mm 3 mps 770 mmHg 57%
    20:00 +17°C° 0 mm 3 mps 770 mmHg 63%
    21:00 +16°C° 0 mm 3 mps 770 mmHg 69%
    22:00 +13°C° 0 mm 3 mps 770 mmHg 75%
    23:00 +13°C° 0 mm 3 mps 770 mmHg 78%

    Tomorrow, 25 June, Tuesday

    Time Temperature Precipitation Wind Pressure Humidity
    00:00 +13°C° 0 mm 3 mps 770 mmHg 80%
    01:00 +13°C° 0 mm 4 mps 770 mmHg 83%
    02:00 +13°C° 0 mm 3 mps 770 mmHg 86%
    03:00 +13°C° 0 mm 3 mps 769 mmHg 89%
    04:00 +13°C° 0 mm 3 mps 769 mmHg 93%
    05:00 +16°C° 0 mm 3 mps 769 mmHg 89%
    06:00 +18°C° 0 mm 3 mps 769 mmHg 85%
    07:00 +19°C° 0 mm 3 mps 769 mmHg 80%
    08:00 +20°C° 0 mm 4 mps 769 mmHg 76%
    09:00 +21°C° 0 mm 4 mps 769 mmHg 71%
    10:00 +22°C° 0 mm 4 mps 769 mmHg 67%
    11:00 +22°C° 0 mm 4 mps 769 mmHg 65%
    12:00 +23°C° 0 mm 4 mps 769 mmHg 63%
    13:00 +23°C° 0 mm 4 mps 768 mmHg 61%
    14:00 +23°C° 0 mm 4 mps 768 mmHg 63%
    15:00 +23°C° 0 mm 4 mps 768 mmHg 64%
    16:00 +22°C° 0 mm 3 mps 768 mmHg 65%
    17:00 +22°C° 0 mm 3 mps 767 mmHg 68%
    18:00 +21°C° 0 mm 3 mps 767 mmHg 71%
    19:00 +21°C° 0 mm 2 mps 767 mmHg 74%
    20:00 +19°C° 0 mm 2 mps 767 mmHg 79%
    21:00 +18°C° 0 mm 2 mps 767 mmHg 83%
    22:00 +17°C° 0 mm 2 mps 767 mmHg 88%
    23:00 +17°C° 0 mm 2 mps 767 mmHg 88%

    Day after tomorrow, 26 June, Wednesday

    Time Temperature Precipitation Wind Pressure Humidity
    00:00 +17°C° 0 mm 2 mps 766 mmHg 88%
    01:00 +18°C° 0 mm 1 mps 766 mmHg 88%
    02:00 +18°C° 0 mm 1 mps 766 mmHg 88%
    03:00 +18°C° 0 mm 1 mps 765 mmHg 89%
    04:00 +18°C° 0 mm 1 mps 765 mmHg 89%
    05:00 +20°C° 0 mm 1 mps 765 mmHg 82%
    06:00 +21°C° 0 mm 1 mps 764 mmHg 76%
    07:00 +23°C° 0 mm 2 mps 764 mmHg 69%
    08:00 +24°C° 0 mm 2 mps 764 mmHg 68%
    09:00 +25°C° 0 mm 2 mps 763 mmHg 66%
    10:00 +26°C° 0 mm 3 mps 763 mmHg 65%
    11:00 +26°C° 0 mm 3 mps 762 mmHg 64%
    12:00 +27°C° 0 mm 3 mps 762 mmHg 64%
    13:00 +27°C° 0 mm 3 mps 762 mmHg 64%
    14:00 +27°C° 0 mm 4 mps 761 mmHg 64%
    15:00 +28°C° 0 mm 4 mps 760 mmHg 63%
    16:00 +28°C° 0 mm 4 mps 760 mmHg 63%
    17:00 +27°C° 0.2 mm 4 mps 759 mmHg 69%
    18:00 +27°C° 0.2 mm 4 mps 759 mmHg 75%
    19:00 +26°C° 0.2 mm 4 mps 759 mmHg 81%
    20:00 +23°C° 0.2 mm 4 mps 759 mmHg 85%
    21:00 +22°C° 0.2 mm 4 mps 759 mmHg 90%
    22:00 +20°C° 0.2 mm 4 mps 759 mmHg 94%
    23:00 +20°C° 0 mm 4 mps 759 mmHg 95%

    27 June, Thursday

    Time Temperature Precipitation Wind Pressure Humidity
    00:00 +20°C° 0 mm 4 mps 760 mmHg 95%
    01:00 +19°C° 0 mm 3 mps 760 mmHg 95%
    02:00 +19°C° 0 mm 3 mps 760 mmHg 95%
    03:00 +18°C° 0 mm 3 mps 760 mmHg 96%
    04:00 +17°C° 0 mm 3 mps 760 mmHg 96%
    05:00 +18°C° 0 mm 3 mps 761 mmHg 90%
    06:00 +19°C° 0 mm 3 mps 761 mmHg 85%
    07:00 +19°C° 0 mm 3 mps 761 mmHg 79%
    08:00 +21°C° 0 mm 2 mps 761 mmHg 69%
    09:00 +24°C° 0 mm 2 mps 762 mmHg 59%
    10:00 +26°C° 0 mm 1 mps 762 mmHg 49%
    11:00 +25°C° 0 mm 2 mps 762 mmHg 53%
    12:00 +23°C° 0 mm 4 mps 762 mmHg 56%
    13:00 +22°C° 0 mm 5 mps 762 mmHg 60%
    14:00 +22°C° 0.2 mm 5 mps 761 mmHg 64%
    15:00 +22°C° 0.2 mm 5 mps 761 mmHg 68%
    16:00 +22°C° 0.2 mm 5 mps 761 mmHg 72%
    17:00 +22°C° 0.4 mm 4 mps 760 mmHg 73%
    18:00 +22°C° 0.4 mm 4 mps 760 mmHg 74%
    19:00 +21°C° 0.4 mm 4 mps 760 mmHg 75%
    20:00 +19°C° 0 mm 4 mps 760 mmHg 77%
    21:00 +18°C° 0 mm 4 mps 760 mmHg 80%
    22:00 +16°C° 0 mm 3 mps 760 mmHg 83%
    23:00 +14°C° 0 mm 3 mps 760 mmHg 85%

    28 June, Friday

    Time Temperature Precipitation Wind Pressure Humidity
    00:00 +14°C° 0 mm 3 mps 760 mmHg 88%
    01:00 +14°C° 0 mm 3 mps 760 mmHg 91%
    02:00 +14°C° 0 mm 3 mps 760 mmHg 92%
    03:00 +13°C° 0 mm 3 mps 760 mmHg 92%
    04:00 +14°C° 0 mm 2 mps 760 mmHg 92%
    05:00 +16°C° 0 mm 3 mps 761 mmHg 83%
    06:00 +17°C° 0 mm 3 mps 761 mmHg 73%
    07:00 +18°C° 0 mm 3 mps 761 mmHg 64%
    08:00 +20°C° 0 mm 2 mps 762 mmHg 57%
    09:00 +23°C° 0 mm 2 mps 762 mmHg 50%
    10:00 +24°C° 0 mm 1 mps 762 mmHg 44%
    11:00 +23°C° 0 mm 2 mps 762 mmHg 48%
    12:00 +21°C° 0 mm 3 mps 762 mmHg 52%
    13:00 +20°C° 0 mm 4 mps 762 mmHg 56%
    14:00 +21°C° 0 mm 4 mps 762 mmHg 57%
    15:00 +21°C° 0 mm 4 mps 762 mmHg 58%
    16:00 +22°C° 0 mm 5 mps 761 mmHg 59%
    17:00 +22°C° 0.1 mm 4 mps 761 mmHg 63%
    18:00 +21°C° 0.1 mm 4 mps 761 mmHg 67%
    19:00 +21°C° 0.1 mm 4 mps 761 mmHg 72%
    20:00 +20°C° 0 mm 4 mps 761 mmHg 72%
    21:00 +18°C° 0 mm 3 mps 761 mmHg 73%
    22:00 +17°C° 0 mm 3 mps 761 mmHg 74%
    23:00 +16°C° 0 mm 3 mps 761 mmHg 70%

    29 June, Saturday

    Time Temperature Precipitation Wind Pressure Humidity
    00:00 +15°C° 0 mm 2 mps 761 mmHg 67%
    01:00 +14°C° 0 mm 2 mps 761 mmHg 63%
    02:00 +14°C° 0 mm 2 mps 761 mmHg 63%
    03:00 +13°C° 0 mm 2 mps 760 mmHg 62%
    04:00 +13°C° 0 mm 2 mps 760 mmHg 62%
    05:00 +15°C° 0 mm 2 mps 760 mmHg 57%
    06:00 +17°C° 0 mm 2 mps 760 mmHg 53%
    07:00 +18°C° 0 mm 2 mps 760 mmHg 48%
    08:00 +20°C° 0 mm 2 mps 761 mmHg 44%
    09:00 +23°C° 0 mm 2 mps 761 mmHg 39%
    10:00 +25°C° 0 mm 1 mps 761 mmHg 34%
    11:00 +24°C° 0 mm 2 mps 761 mmHg 35%
    12:00 +24°C° 0 mm 3 mps 761 mmHg 36%
    13:00 +23°C° 0 mm 4 mps 761 mmHg 37%
    14:00 +22°C° 0 mm 4 mps 761 mmHg 39%
    15:00 +22°C° 0 mm 4 mps 761 mmHg 41%
    16:00 +22°C° 0 mm 4 mps 761 mmHg 43%
    17:00 +21°C° 0 mm 4 mps 761 mmHg 50%
    18:00 +20°C° 0 mm 4 mps 761 mmHg 57%
    19:00 +19°C° 0 mm 4 mps 761 mmHg 64%
    20:00 +18°C° 0 mm 3 mps 761 mmHg 69%
    21:00 +17°C° 0 mm 3 mps 761 mmHg 74%
    22:00 +16°C° 0 mm 3 mps 761 mmHg 79%
    23:00 +16°C° 0 mm 3 mps 760 mmHg 80%
    Show more